[[{"header":{"parameterUnit":"m.s-1","parameterCategory":1,"la1":30.2992,"la2":30.254,"lo1":-89.0895,"lo2":-89.0443,"dy":0.0025,"dx":0.0025,"nx":19,"ny":19,"refTime":"2026-04-14T21:00:00:Z","depth":0,"parameterNumber":2,"parameterNumberName":"U-component_of_WINDS"},"data":[0,0,0,-3.928,-3.9284,-3.9469,-3.947,-3.9701,-3.9703,0,0,0,0,0,0,0,0,0,0,0,-3.9223,-3.9224,-3.928,-3.9284,-3.9469,-3.947,-3.97,-3.9703,0,0,0,0,0,0,0,0,0,0,0,-3.9222,-3.9224,-3.9225,-3.9285,-3.9469,-3.947,-3.97,-3.9562,0,0,0,0,0,0,0,0,0,0,-3.9383,-3.9328,-3.9223,-3.9225,-3.9286,-3.9469,-3.947,-3.9556,-3.9571,-3.9615,0,-3.9654,0,-3.9682,-3.9718,-3.9719,0,0,0,-3.9286,-3.9315,-3.9368,-3.9226,-3.9288,-3.9468,-3.9386,-3.9564,-3.9581,-3.9635,-3.9657,-3.9666,-3.9686,-3.9719,-3.972,-3.9968,-3.9968,0,0,-3.9276,-3.9254,-3.9356,-3.9378,-3.935,-3.938,-3.9392,-3.9575,-3.9597,-3.9658,-3.9671,-3.9689,-3.9721,-3.9723,-3.9967,-3.9968,0,0,0,-3.9245,-3.9247,-3.9295,-3.9369,-3.9403,-3.9386,-3.9399,-3.9589,-3.9606,-3.9674,-3.9692,-3.9722,-3.9725,-3.9965,-3.9967,-3.9997,0,0,0,-3.9239,-3.9229,-3.929,-3.9279,-3.9399,-3.9498,-3.9409,-3.9594,-3.9615,-3.9691,-3.9722,-3.9727,-3.9964,-3.9966,-3.9993,-4.0014,0,0,0,-3.9211,-3.9226,-3.9252,-3.9277,-3.9356,-3.9496,-3.9524,-3.9599,-3.9626,-3.9719,-3.9728,-3.9964,-3.9966,-3.9991,-4.0009,-4.0071,0,0,0,-3.9175,-3.9277,-3.9252,-3.9373,-3.9355,-3.9514,-3.9523,-3.9643,-3.9726,-3.9723,-3.9964,-3.9967,-3.999,-4.0006,-4.0067,-4.0117,-4.0136,0,0,-3.9291,-3.929,-3.9363,-3.9346,-3.9503,-3.9487,-3.965,-3.9746,-3.9775,-3.9902,-3.9908,-3.9995,-4.0009,-4.007,-4.0256,-4.0271,0,0,0,-3.9392,-3.9443,-3.949,-3.9568,-3.9644,-3.9711,-3.9785,-3.9821,-3.9929,-3.9836,-4.0036,-4.0045,-4.0081,-4.0106,-4.0119,-4.0151,-3.9978,-3.9978,-3.9977,-3.9523,-3.9554,-3.9676,-3.9729,-3.9805,-3.988,-3.9944,-4.0005,-4.0015,-4.0062,-4.0099,-4.0207,-4.0235,-4.0245,-4.0278,-4.013,-4.013,-4.013,-4.013,-3.9693,-3.977,-3.9782,-3.9903,-3.9935,-4.0038,-4.0114,-4.0118,-4.0217,-4.0183,-4.0217,-4.0173,-4.0261,-4.0291,-4.0132,-4.0132,-4.0132,-4.0131,-4.0131,-3.9781,-3.9823,-3.9865,-3.998,-4.0065,-4.0116,-4.0211,-4.0238,-4.0264,-4.0298,-4.0338,-4.0337,-4.0338,-4.0315,-4.0316,-4.0316,-4.0317,-4.0317,-4.0317,-3.9854,-3.99,-3.9976,-4.0066,-4.0119,-4.0192,-4.0268,-4.0321,-4.0386,-4.0398,-4.0398,-4.0402,-4.0265,-4.0228,-4.0323,-4.0322,-4.0321,-4.0321,-4.032,-4.0011,-3.9979,-4.0097,-4.015,-4.0256,-4.0338,-4.0371,-4.0476,-4.0524,-4.0569,-4.0567,-4.0461,-4.0462,-4.0452,-4.0421,-4.0561,-4.0561,-4.0561,-4.0561,-4.0082,-4.0086,-4.0211,-4.0294,-4.0378,-4.042,-4.055,-4.0611,-4.0668,-4.0699,-4.0684,-4.0647,-4.0635,-4.0642,-4.0628,-4.06,-4.0782,-4.0783,-4.0783,-4.0179,-4.0192,-4.0298,-4.0354,-4.0439,-4.0511,-4.0634,-4.0727,-4.0787,-4.0792,-4.0724,-4.0714,-4.0655,-4.0634,-4.0636,-4.0613,-4.0562,0,0]},{"header":{"parameterUnit":"m.s-1","parameterCategory":1,"la1":30.2992,"la2":30.254,"lo1":-89.0895,"lo2":-89.0443,"dy":0.0025,"dx":0.0025,"nx":19,"ny":19,"refTime":"2026-04-14T21:00:00:Z","depth":0,"parameterNumber":3,"parameterNumberName":"V-component_of_WINDS"},"data":[0,0,0,4.6243,4.6246,4.6397,4.6397,4.6584,4.6585,0,0,0,0,0,0,0,0,0,0,0,4.6197,4.6198,4.6242,4.6246,4.6397,4.6397,4.6583,4.6585,0,0,0,0,0,0,0,0,0,0,0,4.6197,4.6198,4.62,4.6247,4.6396,4.6397,4.6583,4.6471,0,0,0,0,0,0,0,0,0,0,4.6325,4.6283,4.6198,4.62,4.6248,4.6396,4.6397,4.6466,4.6478,4.6514,0,4.6548,0,4.657,4.6598,4.6598,0,0,0,4.6246,4.6273,4.6315,4.62,4.6249,4.6396,4.6329,4.6472,4.6486,4.653,4.6551,4.6558,4.6573,4.6599,4.66,4.6813,4.6814,0,0,4.6238,4.6223,4.6305,4.6324,4.6303,4.6324,4.6333,4.6481,4.6501,4.6551,4.6562,4.6576,4.66,4.6601,4.6812,4.6814,0,0,0,4.6214,4.6217,4.6256,4.6316,4.6344,4.6328,4.6339,4.6495,4.6509,4.6564,4.6578,4.6601,4.6603,4.6811,4.6813,4.6848,0,0,0,4.6209,4.6203,4.6252,4.6244,4.6341,4.6422,4.6349,4.6498,4.6515,4.6577,4.6601,4.6605,4.681,4.6812,4.6845,4.6867,0,0,0,4.6188,4.6201,4.6223,4.6243,4.6308,4.642,4.6442,4.6502,4.6524,4.6598,4.6606,4.681,4.6812,4.6842,4.6862,4.6918,0,0,0,4.616,4.6251,4.6223,4.633,4.6307,4.6442,4.6441,4.6542,4.661,4.6602,4.681,4.6813,4.6841,4.6859,4.6915,4.6962,4.6981,0,0,4.6266,4.6263,4.6328,4.6307,4.6444,4.642,4.6561,4.6636,4.6655,4.6759,4.6764,4.6846,4.6862,4.6918,4.7094,4.7108,0,0,0,4.6356,4.6402,4.6442,4.6508,4.6569,4.6622,4.6678,4.6706,4.6795,4.6707,4.6883,4.6892,4.6926,4.6949,4.6962,4.699,4.6823,4.6823,4.6823,4.6485,4.6507,4.6614,4.6655,4.6718,4.6775,4.6828,4.6874,4.6876,4.6918,4.6948,4.7052,4.7079,4.7089,4.7119,4.6976,4.6976,4.6976,4.6976,4.6642,4.671,4.6713,4.6818,4.684,4.6928,4.6986,4.6984,4.7067,4.7031,4.7062,4.7019,4.7104,4.7131,4.6979,4.6979,4.6978,4.6978,4.6978,4.6727,4.6764,4.6798,4.6896,4.6967,4.7004,4.7085,4.7101,4.7117,4.7148,4.7181,4.718,4.7181,4.7163,4.7163,4.7163,4.7164,4.7164,4.7164,4.6802,4.684,4.6907,4.6981,4.7025,4.7085,4.7144,4.7187,4.7238,4.7244,4.7244,4.7241,4.711,4.7075,4.717,4.7169,4.7168,4.7168,4.7167,4.6951,4.692,4.7024,4.7069,4.7156,4.7226,4.7247,4.7334,4.7372,4.7411,4.7402,4.7303,4.7299,4.7289,4.7261,4.7398,4.7398,4.7398,4.7398,4.7022,4.7023,4.7133,4.7203,4.7274,4.7304,4.7418,4.7464,4.7506,4.7531,4.7514,4.7478,4.7467,4.747,4.7456,4.743,4.7607,4.7607,4.7608,4.7114,4.7123,4.7218,4.7262,4.7332,4.739,4.7498,4.7576,4.7617,4.7616,4.755,4.7541,4.7484,4.7464,4.7459,4.7438,4.739,0,0]}]]